User: anonymous   Login
Location: Unspecified
(0.0000°N, 0.0000°E)
Time: 20:42:16
(UTC+00:00)
Language:

STARLINK-31378 - Orbit

View from above orbital plane
View from above orbital plane
View from above satellite
View from above satellite

Ground track
Ground track

The orbit is defined by the following mean orbital elements,

1 58932U          26144.78183516 +.00000000 +00000-0 +19725-4 0 00004
2 58932  53.1612 315.8123 0001304  89.7447 270.3703 15.31701492    02
Epoch (UTC): 24 May 2026 18:45:50
Eccentricity: 0.0001304
inclination: 53.1612°
perigee height: 470 km
apogee height: 472 km
right ascension of ascending node: 315.8123°
argument of perigee: 89.7447°
revolutions per day: 15.31701492
mean anomaly at epoch: 270.3703°

The dashed part of the orbit path shows where the satellite is in the earth's shadow,  

DLR